Погода в Махамбете

Хотите узнать прогноз погоды в Махамбете? Тогда Вам сюда: Погода в Махамбете

Поиск расширенной информации на нашем сайте:

Полезная информация:

Новости сайта



02.01.2020
Опубликован Долгосрочный прогноз погоды по городам России и ближнего зарубежья на январь 2020 года.
Карты: Прогноз на январь и февраль 2020 года, Сравнение прогнозируемой аномалии приземной температуры воздуха на январь 2020 года по разным моделям.




Погода в Махамбете - сегодня

Время (UTC), дата Ветер
(°,м/с) 
Видим.   Явления Облачность Т
(°С)
Тd
(°С)
f(%) Тe
(°С)
Pmin
(гПа)
dP
(гПа)
Po
(мм)
O2
(г/м3)
Тmin Tmax R s Состояние
почвы
12 22.10.21 200 (Ю) 20000 м    3/0 верхняя 
[Ci fib]
+15.8 +7.4 57 +15  1020.4  -0.6  767  291           
15 22.10.21 180 (Ю) 20000 м    4/0 верхняя 
[Cs]
+11.5 +8.2 80 +10  1020.2  -0.1  767  295    +17       
18 22.10.21 180 (Ю) 20000 м    10/0 верхняя 
[Cs]
+10.5 +8.6 88 +10  1020.4  0.2  767  296    +17       
21 22.10.21 180 (Ю) 20000 м  {туман}  ясно 
+9.9 +8.9 93 +9  1020.2  -0.2  767  297           
00 23.10.21 200 (Ю) 0500 м  туман  ?/?  
+11 +10.6 97 +12  1020.2  0.1  767  295           
03 23.10.21 200 (Ю) 20000 м  {туман}  10/10 600 м кучево-дожд. 
[Cb cap]
+11.8 +10.3 91 +12  1020.1  -0.2  767  294           
06 23.10.21 230 (ЮЗ) 4000 м  дымка{туман}  10/10 600 м 
[St]
+12.4 +11.7 95 +15  1019.9  -0.2  767  293  +9.4         
09 23.10.21 230 (ЮЗ) 20000 м    8/8 600 м 
[Sc diur, vesp]
+16.9 +12 73 +20  1021.5  1.5  768  289           
12 23.10.21 230 (ЮЗ) 20000 м    8/5 600 м средняя 
[Sc|Ac cuf]
+16.8 +10.9 68 +19  1020.6  -0.9  767  289           
15 23.10.21 180 (Ю) 20000 м    4/0 верхняя 
[Ci fib]
+12.1 +7.6 74 +12  1020.5  767  295    +17.8       
18 23.10.21 тихо ()   20000 м    ясно 
+9.2 +5.5 78 +9  1020.5  767  298    +17.8       
21 23.10.21 тихо ()   20000 м    ясно 
+8.3 +4.5 77 +8  1019.9  -0.6  767  299           
00 24.10.21 тихо ()   20000 м    ясно 
+6.8 +2.2 72 +7  1019.3  -0.6  766  301           
03 24.10.21 тихо ()   20000 м    ясно 
+4.8 +3.6 92 +5  1018.3  -1  765  303           
06 24.10.21 230 (ЮЗ) 20000 м    4/0 верхняя 
[Ci ing]
+12.7 +8.1 74 +13  1018.6  0.3  766  293  +3.9         
09 24.10.21 230 (ЮЗ) 20000 м    10/0 верхняя 
[Cs]
+17.6 +8.8 56 +18  1017.7  -1  765  288           
12 24.10.21 230 (ЮЗ) 20000 м    10/0 средняя, верхняя 
[Ac cast|Cs]
+18.5 +8.5 52 +19  1016.8  -0.9  764  287           
15 24.10.21 320 (СЗ) 20000 м    10/0 средняя 
[Ac As]
+14.8 +8.5 66 +15  1016.7  764  291    +19.1       
18 24.10.21 360 (С) 20000 м    10/0 верхняя 
[Cs]
+11.3 +8.2 81 +12  1016.6  -0.1  764  294    +19.1       
21 24.10.21 тихо ()   20000 м    10/0 средняя 
[As trans]
+9.7 +7.8 88 +10  1015.8  -0.8  763  296           
00 25.10.21 360 (С) 20000 м    10/0 средняя 
[Ac As]
+11.5 +8.5 82 +12  1015.6  -0.2  763  294           
03 25.10.21 360 (С) 20000 м    10/0 средняя 
[Ac As]
+10.5 +6.4 76 +9  1016.3  0.7  764  295           
06 25.10.21 360 (С) 20000 м    10/0 средняя 
[Ac As]
+9.2 +4.1 70 +9  1017.7  1.4  765  298  +8.9         
09 25.10.21 340 (С) 20000 м    8/3 600 м средняя, верхняя 
[Cu med, cong|Ac cast|Ci]
+12.3 +1.3 47 +12  1018.2  0.5  765  295           
12 25.10.21 320 (СЗ) 20000 м    10/1 600 м средняя, верхняя 
[Cu hum|Ac cast|Ci sp]
+12.1 -2.2 37 +10  1019.4  1.2  766  296           
Время (UTC), дата Ветер
(°,м/с) 
Видим.   Явления Облачность Т
(°С)
Тd
(°С)
f(%) Тe
(°С)
Pmin
(гПа)
dP
(гПа)
Po
(мм)
O2
(г/м3)
Тmin Tmax R s Состояние
почвы

Для получения пояснительной информации подведите курсор к названию столбца.

ПОГОДА в Махамбете - архив

Всё, что Вы хотите узнать о погоде в Махамбете - удобно и подробно!

Выберите нужную дату (начиная с 1 января 2019* года) и нажмите кнопку "Найти".
Будут отображены архивные сводки погоды по пункту Махамбет, начиная с указанной даты.


Отображать данные в формате CSV (для использования в таблицах Excel)


Внимание! Наш архив погоды предназначен исключительно для личного некоммерческого использования в познавательных целях. Если Вам необходимы официальные справки о состоянии погоды (для производственных, юридических, коммерческих и т.п. целей), обращайтесь в органы Росгидромета.

*Примечание: данная дата относится к архиву по метеостанциям СССР (Россия, СНГ, Балтия).
Архив по метеостанциям Зарубежной Европы и Азии (кроме Китая) хранится 10 дней, по другим регионам земного шара (Китай, Африка, Америка, Австралия, Океания) - 1 день.

Махамбет - район местоположения метеостанции


Название, широта, долгота, высота метеостанции:
Махамбет 47.7°ш. 51.6°д. -15 м над ур. моря [Казахстан]

Дополнительная информация

В oтличие oт бoльшинства пoгoдных сайтoв мы публикуем пoдрoбную метеoинфoрмацию в детальнoм прoфессиoнальнoм фoрмате.

Характеристики температуры и влажнoсти вoздуха измеряются на высoте 2 м в тени вдали oт зданий и деревьев.
Скoрoсть ветра измеряется на высoте 10 м (на урoвне рoста челoвека скoрoсть ветра ниже в 1.5-2 раза). Если метеoстанция нахoдится в гoрoде или в лесу, тo скoрoсть ветра занижена на 2-4 м/с пo сравнению с oткрытым местoм. Скoрoсть ветра над акватoриями крупных рек и oзёр, а также на вершинах хoлмoв на 2-5 м/с выше, чем в oбычных услoвиях.
Атмoсфернoе давление в разных тoчках местнoсти мoжет значительнo oтличаться oт давления на метеoстанции, в зависимoсти oт услoвий рельефа (при пoдъёме на 10 м давление пoнижается примернo на 1 мм рт.ст.).